Location: Asheville, NC
(35.6000°N, 82.5500°W)
Time: 23:12:44
(UTC-04:00)

Vanguard 2 Rocket - Pass Details

Date: 09 February 2018
Orbit: 554 x 3327 km, 32.9° (Epoch: 20 May)

Event Time Altitude Azimuth Distance (km) Brightness Sun altitude
Rises 08:46:19 0° 285° (WNW) 7,000 10.8 14.6°
Reaches altitude 10° 08:51:59 10° 278° (W) 5,664 10.4 15.6°
Maximum altitude 09:05:30 35° 221° (SW) 2,978 9.6 17.9°
Drops below altitude 10° 09:14:06 10° 160° (SSE) 3,582 11.0 19.4°
Sets 09:16:50 0° 150° (SSE) 4,233 11.5 19.8°
